This is the latest recevied weather packets stored in our database for station/object KF6FPU-15. If no packets are shown the sender has not sent any weather packets the latest 10 day(s).
| Time | Temp. | Humidity | Pressure | Rain* | Wind** | Luminosity | Snow |
|---|---|---|---|---|---|---|---|
| 1787887984 | 34.44° C | 18% | 1012.1 hPa | - | - | - | - |
| 1787887384 | 33.89° C | 18% | 1012.1 hPa | - | - | - | - |
| 1787886784 | 34.44° C | 18% | 1011.9 hPa | - | - | - | - |
| 1787886184 | 34.44° C | 18% | 1011.9 hPa | - | - | - | - |
| 1787885584 | 35° C | 18% | 1011.8 hPa | - | - | - | - |
| 1787884984 | 35° C | 18% | 1011.9 hPa | - | - | - | - |
| 1787884384 | 35.56° C | 18% | 1011.8 hPa | - | - | - | - |
| 1787883784 | 36.67° C | 18% | 1011.9 hPa | - | - | - | - |
| 1787883184 | 36.67° C | 18% | 1012.1 hPa | - | - | - | - |
| 1787881984 | 36.67° C | 18% | 1012.3 hPa | - | - | - | - |
| 1787881384 | 37.22° C | 18% | 1012.4 hPa | - | - | - | - |
| 1787880784 | 37.22° C | 18% | 1012.5 hPa | - | - | - | - |
| 1787880184 | 37.22° C | 18% | 1012.5 hPa | - | - | - | - |
| 1787879584 | 37.78° C | 18% | 1012.5 hPa | - | - | - | - |
| 1787878984 | 37.78° C | 18% | 1012.4 hPa | - | - | - | - |
| 1787878384 | 38.33° C | 18% | 1012.3 hPa | - | - | - | - |
| 1787877784 | 38.33° C | 18% | 1012.4 hPa | - | - | - | - |
| 1787877184 | 38.33° C | 18% | 1012.4 hPa | - | - | - | - |
| 1787876584 | 38.89° C | 18% | 1012.4 hPa | - | - | - | - |
| 1787875384 | 39.44° C | 18% | 1012.2 hPa | - | - | - | - |
| 1787874784 | 40° C | 17% | 1012.1 hPa | - | - | - | - |
| 1787874184 | 41.11° C | 17% | 1012.1 hPa | - | - | - | - |
| 1787873584 | 41.67° C | 17% | 1012.2 hPa | - | - | - | - |
| 1787872984 | 42.78° C | 17% | 1012 hPa | - | - | - | - |
| 1787872384 | 45° C | 17% | 1012 hPa | - | - | - | - |
* Rain since midnight (hover to see other rain measurements)
** Current wind speed in m/s (hover to see current wind gust speed)